EW7952 Weather Reports


time (UTC)temp
C
wind
direction
speed
KPH
gust
KPH
rain 1hr
cm
rain 24hr
cm
rain mn
cm
humidity
%
barometer
mb
20260507091213 10 202 0.0 0.0 0.05 1.45 1.09 91 12.3
20260507090213 9 67 4.8 4.8 0.05 1.45 1.09 91 12.1
20260507085212 9 67 0.0 0.0 0.05 1.40 1.04 91 12.0
20260507084212 9 112 0.0 0.0 0.05 1.40 1.04 92 12.0
20260507082211 9 22 0.0 0.0 0.05 1.40 1.04 92 11.7
20260507081210 10 112 3.2 3.2 0.05 1.40 1.04 92 11.6
20260507080214 9 360 0.0 0.0 0.10 1.40 1.04 92 11.5
20260507075214 9 90 0.0 0.0 0.05 1.35 0.99 92 11.4
20260507074213 9 22 3.2 3.2 0.05 1.35 0.99 92 11.3
20260507072212 9 22 0.0 0.0 0.10 1.35 0.99 93 11.1
20260507071211 9 360 0.0 0.0 0.10 1.35 0.99 93 11.0
20260507065213 9 360 0.0 0.0 0.10 1.30 0.94 93 10.8
20260507064213 9 67 0.0 0.0 0.15 1.30 0.94 93 10.7
20260507063212 8 337 0.0 0.0 0.10 1.24 0.89 93 10.8
20260507062211 8 225 0.0 0.0 0.10 1.24 0.89 93 10.7
20260507061210 8 202 0.0 0.0 0.10 1.24 0.89 93 10.7
20260507055213 8 225 0.0 0.0 0.15 1.19 0.84 93 10.5
20260507054212 8 202 0.0 0.0 0.15 1.14 0.79 93 10.3
20260507053212 8 225 3.2 3.2 0.25 1.14 0.79 93 10.3
20260507052211 8 22 0.0 0.0 0.30 1.14 0.79 93 10.2
20260507051210 8 135 0.0 0.0 0.41 1.14 0.79 93 10.2
20260507045209 8 180 0.0 0.0 0.30 1.65 0.69 93 10.0
20260507044214 8 135 1.6 1.6 0.30 1.60 0.61 93 9.8
20260507043213 8 270 0.0 0.0 0.20 1.50 0.51 94 9.6
20260507042212 8 157 0.0 0.0 0.15 1.45 0.46 94 9.6
20260507041211 8 157 0.0 0.0 0.05 1.35 0.36 94 9.5
20260507035214 8 90 0.0 0.0 0.05 1.35 0.36 93 9.2
20260507034214 8 112 1.6 1.6 0.00 1.30 0.30 93 9.0
20260507033213 9 90 4.8 4.8 0.05 1.30 0.30 93 8.9
20260507032213 9 135 0.0 0.0 0.05 1.30 0.30 93 8.7
20260507031212 9 247 0.0 0.0 0.10 1.30 0.30 93 8.7
20260507030212 9 112 3.2 3.2 0.15 1.30 0.30 93 8.8
20260507024211 10 90 4.8 4.8 0.20 1.30 0.30 93 8.7
20260507023215 10 22 0.0 0.0 0.20 1.24 0.25 93 8.6
20260507022215 10 67 0.0 0.0 0.20 1.24 0.25 93 8.6
20260507021214 10 22 9.7 9.7 0.15 1.14 0.15 93 8.5
20260507020214 10 22 9.7 9.7 0.15 1.14 0.15 93 8.5
20260507014213 10 337 1.6 1.6 0.10 1.09 0.10 93 8.4
20260507013212 10 202 3.2 3.2 0.05 1.04 0.05 93 8.2
20260507012211 10 90 3.2 3.2 0.05 1.04 0.05 93 8.2
20260507011215 10 180 0.0 0.0 0.00 0.99 0.00 93 8.1
20260507010215 10 180 0.0 0.0 0.00 0.99 0.00 93 8.1
20260507005213 10 337 0.0 0.0 0.00 0.99 0.00 93 8.1
20260507003212 10 315 0.0 0.0 0.00 0.99 0.00 93 7.9
20260507002214 10 22 1.6 1.6 0.00 0.99 0.00 93 8.0
20260507001212 10 90 0.0 0.0 0.00 0.99 0.00 93 8.0
20260506235210 10 337 0.0 0.0 0.00 0.99 0.00 93 7.9
20260506234215 10 337 0.0 0.0 0.00 0.99 0.00 93 8.0
20260506233215 10 22 0.0 0.0 0.00 0.99 0.00 92 8.1
20260506232213 10 22 0.0 0.0 0.00 0.99 0.00 92 7.9
20260506231213 10 22 0.0 0.0 0.00 0.99 0.00 92 7.8
20260506230212 11 270 0.0 0.0 0.00 0.99 0.00 92 7.7
20260506224215 11 225 0.0 0.0 0.00 0.99 0.00 92 7.8
20260506223214 11 225 0.0 0.0 0.10 0.99 0.00 92 7.8
20260506222213 11 247 0.0 0.0 0.10 0.99 0.00 91 7.8
20260506221211 11 247 0.0 0.0 0.15 0.99 0.00 91 7.9
20260506220211 11 337 0.0 0.0 0.20 0.99 0.99 91 7.7
20260506215211 11 337 0.0 0.0 0.20 0.99 0.99 92 7.9
20260506214215 11 247 0.0 0.0 0.25 0.99 0.99 92 7.9
20260506212213 11 292 0.0 0.0 0.15 0.89 0.89 91 7.9
20260506211213 11 202 0.0 0.0 0.15 0.84 0.84 91 7.7
20260506210211 12 67 0.0 0.0 0.10 0.79 0.79 91 7.6
20260506205211 11 202 0.0 0.0 0.15 0.79 0.79 91 7.7
20260506204216 11 270 0.0 0.0 0.10 0.71 0.71 91 7.7
20260506203214 11 225 0.0 0.0 0.10 0.71 0.71 90 7.7
20260506201213 11 337 0.0 0.0 0.05 0.66 0.66 89 7.6
20260506200213 12 67 0.0 0.0 0.05 0.66 0.66 89 7.4
20260506195212 12 112 0.0 0.0 0.00 1.24 0.61 89 7.3
20260506193215 11 22 1.6 1.6 0.00 1.24 0.61 89 7.0
20260506192214 12 337 0.0 0.0 0.00 1.24 0.61 89 6.9
20260506191214 12 292 0.0 0.0 0.00 1.24 0.61 88 6.7
20260506185211 12 315 0.0 0.0 0.00 2.29 0.61 86 6.2
20260506184211 12 225 3.2 3.2 0.00 2.29 0.61 86 6.0
20260506183210 12 247 0.0 0.0 0.00 2.29 0.61 85 6.0
20260506182214 13 270 0.0 0.0 0.00 2.29 0.61 84 5.9
20260506181214 13 225 0.0 0.0 0.00 2.29 0.61 83 5.7
20260506180213 13 337 0.0 0.0 0.00 2.29 0.61 79 5.8
20260506175212 14 202 6.4 6.4 0.00 2.34 0.61 75 5.9
20260506174212 15 292 0.0 0.0 0.00 2.34 0.61 71 5.9
20260506172211 16 247 4.8 4.8 0.00 2.34 0.61 65 5.7